User: anonymous   Login
Location: Unspecified
(0.0000°N, 0.0000°E)
Time: 18:57:52
(UTC+00:00)
Language:

Kosmos-2233 - Orbit

View from above orbital plane
View from above orbital plane
View from above satellite
View from above satellite

Ground track
Ground track

The orbit data is extracted from the following two-line orbital elements,

1 22487U 93008A   17084.71461052 +.00000025 +00000-0 +98627-5 0  9993
2 22487 082.9469 162.2715 0038531 170.0346 300.1609 13.75757561206552
Epoch (UTC): 25 March 2017 17:09:02
Eccentricity: 0.0038531
inclination: 82.9469°
perigee height: 950 km
apogee height: 1007 km
right ascension of ascending node: 162.2715°
argument of perigee: 170.0346°
revolutions per day: 13.75757561
mean anomaly at epoch: 300.1609°
orbit number at epoch: 20655

The dashed part of the orbit path shows where the satellite is in the earth's shadow,  

DLR